Bostic, NC

4:59 PM EST on February 19, 2017 (GMT -0500)
Rutherford County-Marchman

Weather History for KFQD - December, 2012

Change the Weather History Date:

Monday, December 17, 2012

  Actual Average (KAVL) Record (KAVL)
Temperature  
Mean Temperature 51 °F -  
Max Temperature 54 °F 47 °F 72 °F (1924)
Min Temperature 48 °F 26 °F 7 °F (1943)
Degree Days  
Heating Degree Days 14    
Growing Degree Days 1 (Base 50)    
Moisture  
Dew Point 51 °F    
Average Humidity 99    
Maximum Humidity 100    
Minimum Humidity 97    
Precipitation  
Precipitation 0.13 in - - ()
Sea Level Pressure  
Sea Level Pressure 29.79 in    
Wind  
Wind Speed 2 mph (SSW)    
Max Wind Speed 8 mph    
Max Gust Speed -    
Visibility 4 miles    
Events Rain    
Averages and records for this station are not official NWS values.
T = Trace of Precipitation, MM = Missing Value Source: NWS Daily Summary

Daily Weather History Graph

Daily Weather History Graph

Search for Another Location

Airport or City:

Trip Planner

Search our weather history database for the weather conditions in past years. The results will help you decide how hot, cold, wet, or windy it might be!

Date:

Astronomy

Dec. 17, 2012 Rise Set
Actual Time 7:31 AM EST 5:17 PM EST
Civil Twilight 7:02 AM EST 5:45 PM EST
Nautical Twilight 6:30 AM EST 6:17 PM EST
Astronomical Twilight 5:59 AM EST 6:48 PM EST
Moon 10:47 AM EST (12/17) 10:27 PM EST (12/17)
Length of Visible Light 10h 42m
Length of Day
9h 46m
Waxing Crescent, 24% of the Moon is Illuminated
Dec 17
Waxing Crescent
Dec 20
First Quarter
Dec 28
Full
Jan 4
Last Quarter
Jan 11
New

Hourly Weather History & Observations

Time (EST) Temp. Dew Point Humidity Pressure Visibility Wind Dir Wind Speed Gust Speed Precip Events Conditions
12:15 AM 48.6 °F 48.6 °F 100% 29.91 in 0.8 mi Calm Calm - N/A Rain Light Rain
12:35 AM 48.4 °F 48.4 °F 100% 29.89 in 0.5 mi Calm Calm - 0.01 in Rain Light Rain
12:55 AM 48.4 °F 48.4 °F 100% 29.87 in 0.5 mi Calm Calm - 0.02 in Rain Light Rain
1:15 AM 48.4 °F 48.4 °F 100% 29.86 in 0.5 mi Calm Calm - N/A Rain Light Rain
1:35 AM 48.4 °F 48.4 °F 100% 29.86 in 0.5 mi Calm Calm - 0.01 in Rain Light Rain
1:55 AM 48.4 °F 48.4 °F 100% 29.84 in 0.2 mi Calm Calm - 0.01 in Rain Light Rain
2:15 AM 48.4 °F 48.4 °F 100% 29.82 in 0.2 mi SE 4.6 mph - N/A Rain Light Rain
2:35 AM 48.9 °F 48.9 °F 100% 29.82 in 0.5 mi SW 3.5 mph - N/A   Light Drizzle
2:55 AM 49.1 °F 49.1 °F 100% 29.84 in 0.5 mi West 5.8 mph - N/A   Light Drizzle
3:15 AM 49.1 °F 49.1 °F 100% 29.85 in 1.5 mi NNW 3.5 mph - N/A   Overcast
3:35 AM 49.1 °F 49.1 °F 100% 29.85 in 1.0 mi Calm Calm - N/A   Overcast
3:55 AM 49.6 °F 49.6 °F 100% 29.84 in 5.0 mi Calm Calm - N/A   Overcast
4:15 AM 49.3 °F 49.3 °F 100% 29.84 in 1.2 mi South 5.8 mph - N/A   Overcast
4:35 AM 49.6 °F 49.6 °F 100% 29.83 in 5.0 mi South 8.1 mph - N/A   Overcast
4:55 AM 50.0 °F 50.0 °F 100% 29.83 in 7.0 mi South 5.8 mph - N/A   Scattered Clouds
5:15 AM 50.0 °F 50.0 °F 100% 29.83 in 7.0 mi South 4.6 mph - N/A   Clear
5:35 AM 50.0 °F 50.0 °F 100% 29.82 in 10.0 mi Calm Calm - N/A   Scattered Clouds
5:55 AM 49.6 °F 49.6 °F 100% 29.83 in 10.0 mi Calm Calm - N/A   Mostly Cloudy
6:15 AM 49.6 °F 49.6 °F 100% 29.83 in 7.0 mi Calm Calm - N/A   Overcast
6:35 AM 49.1 °F 49.1 °F 100% 29.84 in 3.0 mi East 3.5 mph - N/A   Overcast
6:55 AM 49.3 °F 49.3 °F 100% 29.85 in 1.0 mi Calm Calm - N/A   Overcast
7:15 AM 48.7 °F 48.7 °F 100% 29.85 in 0.8 mi SSE 3.5 mph - N/A   Overcast
7:35 AM 49.8 °F 49.8 °F 100% 29.85 in 7.0 mi Calm Calm - N/A   Overcast
7:55 AM 50.0 °F 50.0 °F 100% 29.85 in 4.0 mi Calm Calm - N/A   Overcast
8:15 AM 50.0 °F 50.0 °F 100% 29.83 in 3.0 mi Calm Calm - N/A   Overcast
8:35 AM 49.8 °F 49.8 °F 100% 29.84 in 0.8 mi Calm Calm - N/A   Overcast
8:55 AM 50.0 °F 50.0 °F 100% 29.84 in 0.8 mi East 4.6 mph - N/A   Overcast
9:15 AM 50.2 °F 50.2 °F 100% 29.85 in 1.0 mi Calm Calm - N/A   Overcast
9:35 AM 50.4 °F 50.4 °F 100% 29.85 in 2.5 mi Calm Calm - N/A   Overcast
9:55 AM 50.9 °F 50.9 °F 100% 29.87 in 7.0 mi Calm Calm - N/A   Overcast
10:15 AM 50.9 °F 50.9 °F 100% 29.85 in 7.0 mi East 3.5 mph - N/A   Overcast
10:35 AM 50.9 °F 50.9 °F 100% 29.83 in 10.0 mi ESE 3.5 mph - N/A   Overcast
10:55 AM 51.1 °F 50.9 °F 99% 29.83 in 5.0 mi Calm Calm - N/A   Overcast
11:15 AM 51.4 °F 51.3 °F 99% 29.83 in 7.0 mi Calm Calm - N/A   Overcast
11:35 AM 51.4 °F 51.3 °F 99% 29.83 in 7.0 mi Calm Calm - N/A   Overcast
11:55 AM 51.4 °F 51.1 °F 99% 29.81 in 5.0 mi Calm Calm - 0.01 in Rain Light Rain
12:15 PM 51.8 °F 51.4 °F 99% 29.81 in 4.0 mi Calm Calm - 0.02 in Rain Rain
12:35 PM 52.0 °F 51.8 °F 99% 29.80 in 4.0 mi South 4.6 mph - 0.04 in Rain Light Rain
12:55 PM 52.2 °F 52.0 °F 99% 29.79 in 3.0 mi SSE 4.6 mph - 0.08 in Rain Rain
1:15 PM 52.3 °F 52.0 °F 99% 29.78 in 7.0 mi South 8.1 mph - N/A   Overcast
1:35 PM 52.7 °F 52.0 °F 97% 29.76 in 10.0 mi South 8.1 mph - 0.01 in   Overcast
1:55 PM 53.2 °F 52.3 °F 97% 29.75 in 10.0 mi South 8.1 mph - 0.01 in   Overcast
2:15 PM 53.1 °F 52.5 °F 98% 29.74 in 7.0 mi South 4.6 mph - N/A   Overcast
2:35 PM 53.2 °F 52.3 °F 97% 29.74 in 7.0 mi South 5.8 mph - N/A   Overcast
2:55 PM 52.9 °F 52.3 °F 98% 29.72 in 1.8 mi South 5.8 mph - N/A   Overcast
3:15 PM 52.9 °F 52.7 °F 99% 29.72 in 1.8 mi SSW 3.5 mph - N/A   Overcast
3:35 PM 53.1 °F 52.9 °F 99% 29.72 in 1.5 mi South 4.6 mph - N/A   Overcast
3:55 PM 53.2 °F 53.1 °F 99% 29.71 in 2.0 mi SSW 3.5 mph - N/A   Overcast
4:15 PM 53.2 °F 53.1 °F 99% 29.71 in 2.0 mi SSW 4.6 mph - N/A   Overcast
4:35 PM 53.6 °F 53.2 °F 99% 29.70 in 2.5 mi South 5.8 mph - N/A   Overcast
4:55 PM 53.4 °F 53.2 °F 99% 29.70 in 2.5 mi South 6.9 mph - N/A   Overcast
7:35 PM 54.0 °F 53.6 °F 99% 29.69 in 7.0 mi SW 4.6 mph - N/A   Overcast
7:55 PM 54.0 °F 53.2 °F 97% 29.70 in 7.0 mi SW 4.6 mph - N/A   Overcast
8:15 PM 53.8 °F 53.1 °F 97% 29.69 in 7.0 mi Calm Calm - N/A   Overcast
8:35 PM 53.6 °F 53.1 °F 98% 29.68 in 7.0 mi SSW 4.6 mph - N/A   Overcast
8:55 PM 53.6 °F 53.1 °F 98% 29.68 in 5.0 mi SSW 5.8 mph - N/A   Overcast
9:15 PM 53.1 °F 52.7 °F 99% 29.68 in 5.0 mi SSW 5.8 mph - N/A   Mostly Cloudy
9:35 PM 52.7 °F 52.3 °F 99% 29.67 in 4.0 mi SSW 8.1 mph - N/A   Scattered Clouds
9:55 PM 52.7 °F 52.3 °F 99% 29.66 in 5.0 mi SSW 8.1 mph - N/A   Scattered Clouds
10:15 PM 52.7 °F 52.2 °F 98% 29.67 in 5.0 mi SSW 8.1 mph - N/A   Scattered Clouds
10:35 PM 52.7 °F 52.0 °F 97% 29.68 in 7.0 mi SSW 8.1 mph - N/A   Clear
10:55 PM 52.9 °F 52.0 °F 97% 29.69 in 7.0 mi SW 5.8 mph - N/A   Clear
11:15 PM 52.5 °F 51.8 °F 97% 29.69 in 7.0 mi SW 3.5 mph - N/A   Clear
11:35 PM 52.0 °F 51.3 °F 97% 29.70 in 7.0 mi West 3.5 mph - N/A   Clear
11:55 PM 51.6 °F 51.1 °F 98% 29.70 in 7.0 mi West 3.5 mph - N/A   Scattered Clouds